星链-30879 (STARLINK-30879 )

导读 | 星芒AI

STARLINK-30879 是 SpaceX 星链计划中的一颗低轨通信卫星,属于第 12 批部署的星链卫星群。该卫星于 2023 年发射,运行在约 550 公里的轨道高度,旨在为全球用户提供高速互联网服务。作为星链网络的一部分,它通过与其他卫星协同工作,提升网络覆盖和连接稳定性,特别是在偏远和网络基础设施薄弱的地区。星链项目致力于构建全球卫星互联网系统,推动全球通信技术的发展。

基本信息
目录编号:
58235
目录名称:
STARLINK-30879
国际标识:
2023-171F
轨道中心:
EARTH
卫星名称:
星链-30879
卫星全名:
星链-30879 (STARLINK-30879 )
卫星状态:
已陨落 最后检测时间 2025-09-18
发射日期:
2023-11-08 UTC
国别 :
美国 (US)
星等 :
--
轨道信息
数据来源 国际轨道数据
星历时间: 2025-09-17T18:54:56+0800
轨道信息已过期44天
半长轴: 6703.421km
偏心率: 0.0030748
轨道倾角: 42.985°
近地点辐角 346.725°
升交点赤经 28.384°
平近点角 13.281°
近地点: 304.674km
远地点: 345.898km
周期: 91.034分钟
每日圈数: 15.818237
详细信息
固有亮度:
5
最大亮度:
0.3
卫星平台:
Starlink v2.0 mini
覆盖范围:
全球
运营商:
太空探索技术公司
运营商所在国:
美国
制造商(研发单位):
太空探索技术公司
制造商所在国:
美国
使用方式:
暂无
卫星简介
星链(Starlink)计划是由太空探索技术公司(SpaceX)提出的一个巨型低轨卫星互联网星座项目,计划在2019年至2024年间在太空搭建由约1.2万颗卫星组成的“星链”网络,其中1584颗将部署在地球上空550千米处的近地轨道,并从2020年开始工作。该卫星仍在工作。